QPF
0.00 0.00 0.00 0.00 0.00 0.00 0.00 0.00 0.00 0.00 0.00 0.00 0.00 0.00 0.01 0.01 0.01 0.03 0.03 0.04 0.03 0.02 0.02 0.04 0.04 0.03 0.04 0.04 0.03 0.02 0.02 0.03 0.03 0.02 0.01 0.00 0.00 0.00 0.00 0.00 0.00 0.00 0.00
0.00 0.00 0.00 0.00 0.00 0.00 0.00 0.00 0.00 0.00 0.00 0.00 0.00 0.00 0.01 0.01 0.01 0.03 0.04 0.05 0.05 0.04 0.02 0.03 0.04 0.05 0.05 0.05 0.05 0.04 0.03 0.02 0.01 0.01 0.00 0.01 0.01 0.01 0.01 0.01 0.01 0.00 0.00
0.00 0.00 0.00 0.00 0.00 0.00 0.00 0.00 0.00 0.00 0.01 0.01 0.01 0.00 0.00 0.00 0.01 0.02 0.03 0.04 0.06 0.05 0.04 0.04 0.05 0.06 0.07 0.05 0.04 0.03 0.02 0.01 0.01 0.01 0.01 0.01 0.01 0.01 0.02 0.04 0.07 0.04 0.01
0.00 0.00 0.00 0.00 0.00 0.01 0.00 0.00 0.00 0.00 0.02 0.03 0.03 0.02 0.01 0.00 0.01 0.02 0.03 0.04 0.06 0.06 0.05 0.05 0.04 0.04 0.03 0.03 0.02 0.01 0.01 0.00 0.00 0.00 0.00 0.00 0.00 0.00 0.01 0.05 0.13 0.12 0.07
0.00 0.00 0.00 0.00 0.01 0.02 0.02 0.01 0.00 0.01 0.04 0.07 0.08 0.07 0.04 0.02 0.01 0.03 0.05 0.06 0.05 0.07 0.09 0.07 0.04 0.02 0.02 0.02 0.02 0.01 0.00 0.00 0.01 0.02 0.00 0.00 0.00 0.00 0.00 0.03 0.10 0.16 0.15
0.00 0.00 0.00 0.01 0.01 0.03 0.03 0.02 0.02 0.02 0.05 0.10 0.13 0.11 0.06 0.02 0.02 0.04 0.07 0.08 0.07 0.09 0.12 0.10 0.11 0.07 0.05 0.03 0.02 0.01 0.02 0.02 0.04 0.07 0.03 0.01 0.01 0.01 0.00 0.01 0.05 0.15 0.15
0.00 0.00 0.00 0.01 0.02 0.05 0.05 0.03 0.02 0.02 0.04 0.08 0.11 0.09 0.05 0.03 0.01 0.02 0.06 0.07 0.09 0.11 0.11 0.10 0.11 0.09 0.09 0.08 0.07 0.08 0.09 0.11 0.11 0.12 0.08 0.04 0.03 0.01 0.01 0.01 0.01 0.03 0.06
0.00 0.00 0.00 0.01 0.02 0.07 0.10 0.04 0.01 0.02 0.04 0.08 0.12 0.11 0.06 0.05 0.06 0.08 0.07 0.07 0.08 0.08 0.07 0.09 0.10 0.11 0.13 0.14 0.14 0.15 0.16 0.16 0.14 0.11 0.06 0.04 0.03 0.02 0.04 0.06 0.04 0.02 0.02
0.00 0.00 0.00 0.00 0.01 0.03 0.04 0.02 0.01 0.01 0.05 0.10 0.14 0.18 0.13 0.09 0.14 0.16 0.12 0.12 0.17 0.14 0.11 0.13 0.15 0.13 0.18 0.22 0.17 0.14 0.13 0.10 0.06 0.04 0.02 0.02 0.01 0.02 0.02 0.04 0.04 0.03 0.02
0.01 0.01 0.01 0.01 0.00 0.00 0.00 0.00 0.00 0.00 0.02 0.05 0.07 0.11 0.11 0.11 0.12 0.13 0.10 0.12 0.16 0.12 0.08 0.09 0.11 0.11 0.09 0.08 0.05 0.03 0.02 0.01 0.00 0.00 0.00 0.00 0.00 0.00 0.00 0.00 0.01 0.03 0.02
0.01 0.01 0.00 0.00 0.00 0.00 0.00 0.00 0.00 0.00 0.00 0.01 0.02 0.03 0.04 0.07 0.06 0.07 0.07 0.08 0.06 0.04 0.02 0.01 0.01 0.01 0.01 0.00 0.00 0.00 0.00 0.00 0.00 0.00 0.00 0.00 0.00 0.00 0.00 0.00 0.00 0.00 0.01
0.00 0.00 0.00 0.00 0.00 0.00 0.00 0.00 0.00 0.00 0.00 0.00 0.01 0.02 0.03 0.04 0.05 0.05 0.04 0.03 0.01 0.00 0.00 0.00 0.00 0.00 0.00 0.00 0.00 0.00 0.00 0.00 0.00 0.00 0.00 0.00 0.00 0.00 0.00 0.00 0.00 0.00 0.00
0.00 0.00 0.00 0.00 0.00 0.00 0.00 0.00 0.00 0.00 0.00 0.00 0.00 0.01 0.02 0.03 0.01 0.01 0.00 0.00 0.00 0.00 0.00 0.00 0.00 0.00 0.00 0.00 0.00 0.00 0.00 0.00 0.00 0.00 0.00 0.00 0.00 0.00 0.00 0.00 0.00 0.00 0.00
0.00 0.00 0.00 0.00 0.00 0.00 0.00 0.00 0.00 0.00 0.00 0.00 0.00 0.01 0.01 0.01 0.00 0.00 0.00 0.00 0.00 0.00 0.00 0.00 0.00 0.00 0.00 0.00 0.00 0.00 0.00 0.00 0.00 0.00 0.00 0.00 0.00 0.00 0.00 0.00 0.00 0.00 0.00
0.00 0.00 0.00 0.00 0.00 0.00 0.00 0.00 0.00 0.00 0.00 0.00 0.00 0.00 0.00 0.00 0.00 0.00 0.00 0.00 0.00 0.00 0.00 0.00 0.00 0.00 0.00 0.00 0.00 0.00 0.00 0.00 0.00 0.00 0.00 0.00 0.00 0.00 0.00 0.00 0.00 0.00 0.00
0.00 0.01 0.00 0.00 0.00 0.00 0.00 0.00 0.00 0.00 0.00 0.00 0.00 0.00 0.00 0.00 0.00 0.00 0.00 0.00 0.00 0.00 0.00 0.00 0.00 0.00 0.00 0.00 0.00 0.00 0.00 0.00 0.00 0.00 0.00 0.00 0.00 0.00 0.00 0.00 0.00 0.00 0.00
0.02 0.03 0.01 0.00 0.00 0.00 0.00 0.00 0.00 0.00 0.00 0.00 0.00 0.00 0.00 0.00 0.00 0.00 0.00 0.00 0.00 0.00 0.00 0.00 0.00 0.00 0.00 0.00 0.00 0.00 0.00 0.00 0.00 0.00 0.00 0.00 0.00 0.00 0.00 0.00 0.00 0.00 0.00
0.09 0.12 0.04 0.00 0.00 0.00 0.00 0.00 0.00 0.00 0.00 0.00 0.00 0.00 0.00 0.00 0.00 0.00 0.00 0.00 0.00 0.00 0.00 0.00 0.00 0.00 0.00 0.00 0.00 0.00 0.00 0.00 0.00 0.00 0.00 0.00 0.00 0.00 0.00 0.00 0.00 0.00 0.00
0.17 0.20 0.09 0.02 0.01 0.00 0.00 0.00 0.00 0.00 0.00 0.00 0.00 0.00 0.00 0.00 0.00 0.00 0.00 0.00 0.00 0.00 0.00 0.00 0.00 0.00 0.00 0.00 0.00 0.00 0.00 0.00 0.00 0.00 0.00 0.00 0.00 0.00 0.00 0.00 0.00 0.00 0.00
0.21 0.19 0.10 0.07 0.04 0.01 0.00 0.00 0.00 0.00 0.00 0.00 0.00 0.00 0.00 0.00 0.00 0.00 0.00 0.00 0.00 0.00 0.00 0.00 0.00 0.00 0.00 0.00 0.00 0.00 0.00 0.00 0.00 0.00 0.00 0.00 0.00 0.00 0.00 0.00 0.00 0.00 0.00
0.16 0.14 0.12 0.13 0.07 0.03 0.02 0.01 0.00 0.00 0.00 0.00 0.00 0.00 0.00 0.00 0.00 0.00 0.00 0.00 0.00 0.00 0.00 0.00 0.00 0.00 0.00 0.00 0.00 0.00 0.00 0.00 0.00 0.00 0.00 0.00 0.00 0.00 0.00 0.00 0.00 0.00 0.00
0.12 0.17 0.17 0.15 0.07 0.03 0.02 0.01 0.00 0.00 0.00 0.00 0.00 0.00 0.00 0.00 0.00 0.00 0.00 0.00 0.00 0.00 0.00 0.00 0.00 0.00 0.00 0.00 0.00 0.00 0.00 0.00 0.00 0.00 0.00 0.00 0.00 0.00 0.00 0.00 0.00 0.00 0.00
0.11 0.21 0.21 0.14 0.07 0.03 0.01 0.00 0.00 0.00 0.00 0.00 0.01 0.01 0.01 0.01 0.00 0.00 0.00 0.00 0.00 0.00 0.00 0.00 0.00 0.00 0.00 0.00 0.00 0.00 0.00 0.00 0.00 0.00 0.00 0.00 0.00 0.00 0.00 0.00 0.00 0.00 0.00
0.13 0.17 0.15 0.08 0.03 0.01 0.00 0.00 0.00 0.00 0.01 0.02 0.02 0.01 0.00 0.00 0.00 0.00 0.00 0.00 0.00 0.00 0.00 0.00 0.00 0.00 0.00 0.00 0.00 0.00 0.00 0.00 0.00 0.00 0.00 0.00 0.00 0.00 0.00 0.00 0.00 0.00 0.00
0.06 0.07 0.05 0.03 0.02 0.01 0.01 0.02 0.03 0.04 0.04 0.02 0.01 0.00 0.00 0.00 0.00 0.00 0.00 0.00 0.00 0.00 0.00 0.00 0.00 0.00 0.00 0.00 0.00 0.00 0.00 0.00 0.00 0.01 0.00 0.00 0.00 0.00 0.00 0.00 0.00 0.00 0.00
0.01 0.01 0.01 0.02 0.02 0.02 0.02 0.03 0.03 0.02 0.01 0.00 0.00 0.00 0.00 0.00 0.00 0.00 0.00 0.00 0.00 0.00 0.00 0.00 0.00 0.00 0.00 0.00 0.00 0.00 0.00 0.00 0.00 0.01 0.00 0.00 0.00 0.00 0.00 0.00 0.00 0.00 0.00
MSLP
1012.05 1012.12 1012.37 1012.77 1013.24 1013.66 1013.96 1014.10 1014.09 1013.99 1013.87 1013.82 1013.91 1014.15 1014.50 1014.91 1015.31 1015.61 1015.79 1015.83 1015.78 1015.68 1015.60 1015.58 1015.65 1015.77 1015.93 1016.07 1016.16 1016.16 1016.10 1015.97 1015.84 1015.72 1015.66 1015.65 1015.69 1015.76 1015.84 1015.90 1015.95 1015.98 1016.02
1012.31 1012.39 1012.63 1013.01 1013.44 1013.84 1014.12 1014.26 1014.26 1014.16 1014.07 1014.04 1014.14 1014.37 1014.71 1015.10 1015.45 1015.71 1015.84 1015.84 1015.75 1015.64 1015.56 1015.56 1015.66 1015.83 1016.03 1016.20 1016.29 1016.29 1016.20 1016.04 1015.86 1015.70 1015.61 1015.58 1015.62 1015.69 1015.79 1015.87 1015.93 1015.98 1016.02
1012.45 1012.54 1012.78 1013.14 1013.56 1013.95 1014.25 1014.40 1014.44 1014.39 1014.33 1014.33 1014.43 1014.65 1014.95 1015.28 1015.56 1015.74 1015.80 1015.75 1015.64 1015.53 1015.48 1015.52 1015.66 1015.87 1016.10 1016.28 1016.36 1016.33 1016.19 1015.98 1015.74 1015.54 1015.41 1015.36 1015.40 1015.48 1015.59 1015.68 1015.76 1015.82 1015.88
1012.46 1012.56 1012.80 1013.17 1013.60 1014.01 1014.34 1014.54 1014.63 1014.64 1014.63 1014.65 1014.76 1014.95 1015.20 1015.44 1015.64 1015.75 1015.75 1015.66 1015.54 1015.44 1015.43 1015.52 1015.71 1015.96 1016.20 1016.37 1016.43 1016.34 1016.14 1015.86 1015.56 1015.31 1015.15 1015.08 1015.11 1015.20 1015.32 1015.43 1015.52 1015.59 1015.65
1012.35 1012.47 1012.73 1013.12 1013.58 1014.03 1014.40 1014.66 1014.81 1014.88 1014.92 1014.97 1015.07 1015.23 1015.42 1015.60 1015.72 1015.76 1015.71 1015.61 1015.50 1015.45 1015.48 1015.63 1015.86 1016.13 1016.38 1016.52 1016.52 1016.37 1016.10 1015.75 1015.40 1015.11 1014.92 1014.84 1014.87 1014.96 1015.08 1015.20 1015.29 1015.35 1015.40
1012.17 1012.32 1012.61 1013.04 1013.53 1014.02 1014.44 1014.76 1014.96 1015.08 1015.15 1015.22 1015.31 1015.44 1015.58 1015.71 1015.78 1015.79 1015.73 1015.64 1015.57 1015.57 1015.66 1015.86 1016.12 1016.40 1016.62 1016.72 1016.67 1016.45 1016.11 1015.71 1015.32 1015.00 1014.80 1014.73 1014.76 1014.85 1014.97 1015.08 1015.14 1015.18 1015.20
1011.99 1012.16 1012.49 1012.96 1013.48 1014.00 1014.46 1014.81 1015.05 1015.20 1015.29 1015.36 1015.45 1015.56 1015.67 1015.77 1015.83 1015.83 1015.80 1015.75 1015.74 1015.80 1015.94 1016.18 1016.46 1016.72 1016.91 1016.96 1016.84 1016.57 1016.18 1015.75 1015.34 1015.03 1014.84 1014.78 1014.82 1014.91 1015.02 1015.09 1015.12 1015.10 1015.06
1011.86 1012.07 1012.43 1012.92 1013.46 1014.00 1014.46 1014.82 1015.07 1015.22 1015.31 1015.38 1015.47 1015.57 1015.68 1015.78 1015.85 1015.89 1015.90 1015.91 1015.96 1016.08 1016.26 1016.52 1016.79 1017.03 1017.17 1017.16 1017.00 1016.68 1016.28 1015.84 1015.45 1015.16 1015.00 1014.96 1015.02 1015.11 1015.20 1015.23 1015.20 1015.11 1014.99
1011.84 1012.07 1012.46 1012.96 1013.50 1014.02 1014.46 1014.79 1015.02 1015.15 1015.24 1015.31 1015.39 1015.50 1015.63 1015.75 1015.86 1015.95 1016.01 1016.08 1016.19 1016.34 1016.55 1016.80 1017.05 1017.24 1017.33 1017.27 1017.07 1016.74 1016.33 1015.92 1015.57 1015.33 1015.21 1015.21 1015.28 1015.37 1015.43 1015.42 1015.32 1015.16 1014.95
1011.92 1012.19 1012.58 1013.07 1013.59 1014.07 1014.46 1014.75 1014.94 1015.04 1015.11 1015.18 1015.27 1015.40 1015.56 1015.72 1015.88 1016.01 1016.12 1016.24 1016.37 1016.53 1016.74 1016.96 1017.16 1017.30 1017.34 1017.24 1017.01 1016.68 1016.30 1015.93 1015.64 1015.45 1015.39 1015.42 1015.51 1015.60 1015.62 1015.57 1015.41 1015.17 1014.89
1012.09 1012.39 1012.79 1013.26 1013.73 1014.16 1014.49 1014.72 1014.87 1014.94 1015.00 1015.07 1015.18 1015.34 1015.53 1015.73 1015.92 1016.09 1016.23 1016.36 1016.49 1016.64 1016.80 1016.97 1017.12 1017.20 1017.19 1017.06 1016.82 1016.51 1016.16 1015.84 1015.60 1015.47 1015.45 1015.51 1015.61 1015.68 1015.69 1015.59 1015.39 1015.11 1014.78
1012.32 1012.65 1013.05 1013.49 1013.92 1014.28 1014.56 1014.74 1014.84 1014.90 1014.96 1015.04 1015.18 1015.36 1015.58 1015.81 1016.02 1016.19 1016.33 1016.44 1016.55 1016.65 1016.76 1016.87 1016.96 1016.98 1016.93 1016.77 1016.53 1016.24 1015.92 1015.64 1015.45 1015.35 1015.36 1015.43 1015.52 1015.58 1015.57 1015.46 1015.24 1014.93 1014.58
1012.56 1012.92 1013.33 1013.75 1014.13 1014.44 1014.67 1014.81 1014.89 1014.95 1015.01 1015.12 1015.28 1015.49 1015.73 1015.97 1016.17 1016.33 1016.44 1016.52 1016.56 1016.61 1016.65 1016.70 1016.72 1016.70 1016.61 1016.44 1016.21 1015.92 1015.63 1015.38 1015.20 1015.11 1015.11 1015.17 1015.25 1015.30 1015.28 1015.16 1014.94 1014.65 1014.31
1012.75 1013.15 1013.57 1013.98 1014.34 1014.62 1014.82 1014.94 1015.02 1015.08 1015.16 1015.30 1015.49 1015.72 1015.96 1016.19 1016.38 1016.50 1016.56 1016.58 1016.57 1016.55 1016.53 1016.52 1016.50 1016.44 1016.33 1016.15 1015.91 1015.63 1015.34 1015.08 1014.89 1014.79 1014.76 1014.79 1014.84 1014.87 1014.84 1014.73 1014.54 1014.28 1013.99
1012.89 1013.33 1013.77 1014.17 1014.52 1014.79 1014.98 1015.10 1015.19 1015.27 1015.39 1015.54 1015.75 1015.99 1016.22 1016.43 1016.59 1016.67 1016.68 1016.64 1016.57 1016.50 1016.44 1016.39 1016.33 1016.25 1016.12 1015.93 1015.68 1015.40 1015.09 1014.81 1014.58 1014.43 1014.36 1014.34 1014.35 1014.35 1014.32 1014.22 1014.07 1013.87 1013.63
1012.96 1013.44 1013.90 1014.32 1014.67 1014.94 1015.13 1015.27 1015.37 1015.48 1015.62 1015.79 1016.01 1016.24 1016.46 1016.64 1016.76 1016.80 1016.77 1016.69 1016.59 1016.48 1016.40 1016.32 1016.25 1016.16 1016.02 1015.82 1015.56 1015.24 1014.90 1014.57 1014.29 1014.08 1013.94 1013.86 1013.83 1013.80 1013.76 1013.69 1013.58 1013.43 1013.25
1013.00 1013.50 1013.98 1014.41 1014.77 1015.05 1015.26 1015.41 1015.54 1015.66 1015.81 1015.99 1016.20 1016.41 1016.61 1016.76 1016.85 1016.86 1016.81 1016.71 1016.60 1016.49 1016.40 1016.32 1016.24 1016.14 1015.99 1015.77 1015.48 1015.13 1014.75 1014.36 1014.02 1013.73 1013.52 1013.39 1013.31 1013.26 1013.21 1013.16 1013.08 1012.97 1012.84
1013.06 1013.57 1014.06 1014.50 1014.86 1015.15 1015.37 1015.53 1015.66 1015.79 1015.94 1016.11 1016.29 1016.49 1016.66 1016.79 1016.85 1016.86 1016.80 1016.71 1016.61 1016.51 1016.42 1016.35 1016.27 1016.16 1016.00 1015.75 1015.42 1015.03 1014.59 1014.15 1013.73 1013.38 1013.11 1012.91 1012.79 1012.71 1012.66 1012.61 1012.55 1012.47 1012.38
1013.18 1013.69 1014.17 1014.60 1014.96 1015.25 1015.47 1015.64 1015.76 1015.88 1016.01 1016.15 1016.31 1016.47 1016.62 1016.73 1016.79 1016.79 1016.76 1016.69 1016.61 1016.53 1016.46 1016.39 1016.30 1016.17 1015.97 1015.69 1015.32 1014.88 1014.38 1013.88 1013.41 1013.00 1012.67 1012.42 1012.26 1012.15 1012.08 1012.03 1011.97 1011.92 1011.85
1013.43 1013.90 1014.36 1014.77 1015.12 1015.40 1015.61 1015.76 1015.87 1015.96 1016.06 1016.17 1016.29 1016.42 1016.54 1016.64 1016.70 1016.72 1016.71 1016.67 1016.61 1016.55 1016.49 1016.41 1016.30 1016.14 1015.89 1015.56 1015.14 1014.64 1014.10 1013.55 1013.03 1012.57 1012.19 1011.90 1011.70 1011.56 1011.46 1011.39 1011.33 1011.28 1011.22
1013.83 1014.25 1014.66 1015.04 1015.36 1015.62 1015.81 1015.95 1016.04 1016.10 1016.16 1016.23 1016.32 1016.41 1016.51 1016.60 1016.66 1016.69 1016.70 1016.68 1016.64 1016.59 1016.52 1016.41 1016.26 1016.04 1015.74 1015.35 1014.88 1014.33 1013.75 1013.16 1012.60 1012.11 1011.69 1011.36 1011.11 1010.93 1010.79 1010.69 1010.61 1010.55 1010.51
1014.39 1014.74 1015.10 1015.43 1015.72 1015.96 1016.13 1016.24 1016.31 1016.34 1016.37 1016.40 1016.45 1016.51 1016.58 1016.65 1016.71 1016.75 1016.76 1016.75 1016.71 1016.64 1016.54 1016.39 1016.18 1015.90 1015.54 1015.09 1014.57 1013.99 1013.37 1012.76 1012.18 1011.66 1011.21 1010.83 1010.53 1010.30 1010.11 1009.97 1009.86 1009.78 1009.74
1015.07 1015.36 1015.66 1015.94 1016.20 1016.41 1016.56 1016.66 1016.71 1016.73 1016.72 1016.72 1016.73 1016.75 1016.79 1016.84 1016.88 1016.91 1016.91 1016.88 1016.82 1016.71 1016.56 1016.35 1016.08 1015.73 1015.31 1014.81 1014.25 1013.64 1013.02 1012.40 1011.81 1011.27 1010.79 1010.37 1010.02 1009.72 1009.47 1009.27 1009.13 1009.03 1009.00
1015.84 1016.06 1016.30 1016.55 1016.78 1016.97 1017.12 1017.20 1017.24 1017.24 1017.22 1017.18 1017.15 1017.13 1017.12 1017.13 1017.14 1017.13 1017.10 1017.04 1016.93 1016.77 1016.56 1016.29 1015.95 1015.54 1015.07 1014.54 1013.97 1013.36 1012.75 1012.14 1011.55 1011.00 1010.49 1010.03 1009.62 1009.26 1008.94 1008.69 1008.49 1008.38 1008.33
1016.62 1016.79 1016.99 1017.21 1017.42 1017.60 1017.74 1017.83 1017.86 1017.85 1017.80 1017.72 1017.65 1017.58 1017.52 1017.47 1017.42 1017.37 1017.29 1017.17 1017.01 1016.79 1016.52 1016.19 1015.80 1015.35 1014.85 1014.32 1013.75 1013.16 1012.57 1011.99 1011.42 1010.87 1010.35 1009.85 1009.39 1008.96 1008.58 1008.27 1008.03 1007.88 1007.83
1017.37 1017.51 1017.68 1017.88 1018.08 1018.26 1018.40 1018.49 1018.51 1018.48 1018.40 1018.28 1018.16 1018.03 1017.90 1017.78 1017.67 1017.55 1017.40 1017.23 1017.01 1016.74 1016.41 1016.04 1015.61 1015.14 1014.64 1014.12 1013.58 1013.03 1012.49 1011.94 1011.41 1010.88 1010.35 1009.83 1009.32 1008.84 1008.41 1008.04 1007.76 1007.58 1007.51
Thickness
5810 5804 5791 5788 5785 5783 5781 5781 5780 5778 5777 5777 5777 5776 5774 5772 5769 5767 5766 5765 5765 5765 5764 5764 5762 5760 5759 5759 5759 5759 5758 5757 5758 5759 5759 5759 5760 5760 5759 5759 5759 5762 5758
5806 5798 5788 5784 5781 5778 5777 5776 5775 5773 5773 5773 5772 5771 5769 5767 5765 5764 5763 5762 5761 5760 5760 5760 5759 5758 5756 5755 5755 5755 5754 5754 5755 5756 5757 5758 5758 5757 5756 5755 5756 5757 5754
5799 5792 5785 5780 5776 5773 5772 5772 5771 5769 5768 5768 5767 5766 5764 5762 5762 5761 5760 5759 5758 5757 5756 5756 5755 5754 5752 5750 5750 5750 5750 5750 5751 5752 5755 5759 5759 5754 5753 5753 5753 5752 5750
5792 5789 5783 5774 5771 5768 5766 5767 5767 5764 5763 5763 5762 5760 5759 5757 5756 5757 5756 5755 5754 5753 5752 5751 5750 5748 5747 5745 5744 5745 5745 5746 5746 5749 5757 5759 5758 5751 5748 5749 5751 5751 5749
5788 5784 5775 5769 5767 5765 5763 5761 5761 5760 5759 5758 5757 5756 5755 5752 5750 5750 5750 5749 5748 5747 5746 5745 5744 5742 5740 5739 5739 5739 5740 5742 5743 5746 5755 5755 5753 5748 5745 5745 5747 5747 5745
5784 5779 5771 5767 5765 5764 5761 5757 5756 5756 5756 5754 5752 5751 5750 5748 5746 5744 5743 5743 5742 5740 5739 5738 5736 5734 5734 5734 5733 5734 5736 5737 5740 5744 5747 5749 5748 5742 5741 5741 5743 5743 5742
5782 5777 5770 5764 5762 5761 5758 5754 5753 5752 5752 5751 5748 5746 5744 5742 5739 5738 5738 5737 5736 5733 5731 5731 5730 5728 5727 5727 5726 5726 5729 5732 5736 5738 5739 5741 5738 5735 5735 5736 5738 5739 5739
5780 5775 5767 5762 5761 5759 5754 5751 5750 5748 5747 5746 5744 5741 5738 5736 5734 5733 5732 5732 5730 5728 5726 5725 5724 5721 5719 5718 5717 5718 5720 5724 5729 5731 5732 5733 5728 5729 5729 5730 5731 5734 5735
5779 5776 5772 5765 5759 5754 5750 5747 5747 5745 5743 5742 5739 5736 5733 5731 5730 5727 5725 5724 5722 5721 5720 5718 5715 5713 5711 5709 5708 5709 5713 5717 5723 5726 5727 5725 5720 5721 5723 5724 5724 5726 5729
5778 5775 5769 5763 5758 5752 5747 5742 5741 5739 5738 5737 5734 5731 5729 5727 5725 5722 5720 5718 5716 5715 5713 5710 5708 5706 5703 5702 5703 5705 5708 5712 5716 5720 5719 5716 5712 5714 5715 5716 5717 5718 5721
5774 5772 5768 5761 5754 5751 5745 5738 5737 5734 5733 5731 5729 5725 5725 5726 5723 5718 5713 5711 5709 5706 5704 5701 5699 5699 5698 5698 5699 5702 5705 5707 5708 5707 5707 5705 5705 5707 5708 5709 5711 5712 5714
5770 5769 5765 5757 5752 5748 5743 5737 5736 5735 5730 5728 5724 5721 5720 5717 5714 5712 5705 5703 5701 5698 5696 5694 5693 5695 5697 5698 5698 5698 5701 5702 5702 5702 5701 5698 5698 5700 5701 5702 5705 5707 5708
5768 5762 5759 5752 5747 5745 5740 5737 5734 5730 5725 5723 5718 5715 5711 5710 5708 5706 5702 5699 5696 5695 5695 5691 5693 5692 5693 5691 5692 5694 5693 5695 5697 5697 5696 5692 5692 5693 5694 5695 5697 5699 5701
5763 5757 5753 5746 5741 5738 5737 5733 5729 5726 5721 5719 5712 5710 5708 5706 5703 5700 5696 5694 5693 5691 5688 5690 5687 5685 5685 5684 5684 5685 5685 5686 5687 5688 5688 5686 5686 5686 5687 5688 5689 5691 5693
5758 5752 5748 5742 5736 5732 5729 5727 5724 5719 5717 5710 5706 5702 5700 5700 5697 5693 5689 5685 5687 5684 5683 5679 5679 5678 5678 5679 5679 5678 5678 5678 5679 5679 5679 5680 5679 5679 5680 5681 5683 5685 5686
5754 5747 5743 5737 5731 5727 5724 5720 5717 5714 5707 5705 5701 5696 5692 5691 5688 5686 5682 5678 5677 5674 5671 5669 5670 5669 5671 5671 5671 5671 5670 5671 5671 5670 5672 5674 5674 5673 5671 5672 5674 5675 5678
5748 5742 5735 5730 5725 5721 5718 5714 5711 5706 5703 5699 5693 5689 5685 5683 5679 5678 5676 5672 5669 5666 5663 5663 5663 5663 5663 5663 5663 5664 5663 5663 5663 5663 5663 5665 5666 5667 5665 5665 5664 5665 5667
5744 5736 5730 5726 5718 5712 5707 5704 5703 5700 5696 5692 5688 5683 5678 5674 5672 5670 5670 5668 5663 5663 5662 5660 5658 5657 5655 5654 5655 5655 5655 5655 5655 5655 5655 5656 5657 5658 5658 5657 5657 5657 5659
5737 5731 5723 5717 5710 5703 5696 5694 5693 5688 5686 5685 5681 5678 5672 5668 5665 5664 5663 5659 5656 5656 5654 5652 5650 5646 5643 5642 5643 5644 5645 5645 5645 5644 5644 5643 5644 5646 5647 5646 5647 5648 5650
5731 5724 5713 5705 5699 5691 5685 5684 5684 5681 5679 5677 5674 5669 5665 5661 5658 5656 5655 5651 5647 5646 5643 5639 5633 5631 5629 5628 5630 5632 5632 5634 5634 5634 5633 5633 5633 5634 5635 5636 5637 5639 5639
5721 5713 5704 5696 5690 5683 5676 5676 5677 5675 5671 5668 5664 5659 5655 5652 5648 5645 5645 5640 5634 5631 5625 5621 5618 5616 5615 5614 5612 5616 5622 5624 5624 5623 5621 5622 5622 5622 5622 5622 5623 5625 5627
5709 5701 5694 5688 5683 5677 5668 5667 5667 5665 5662 5659 5654 5647 5643 5638 5633 5632 5626 5623 5618 5611 5606 5602 5597 5594 5596 5595 5591 5591 5597 5606 5609 5610 5607 5605 5605 5606 5607 5609 5610 5612 5612
5696 5690 5685 5678 5673 5667 5661 5658 5654 5651 5649 5646 5640 5634 5628 5623 5618 5613 5609 5605 5598 5593 5590 5583 5576 5576 5575 5575 5572 5568 5570 5578 5585 5587 5584 5584 5585 5587 5589 5589 5590 5592 5595
5682 5678 5672 5666 5660 5656 5653 5649 5644 5639 5635 5628 5622 5617 5612 5607 5603 5599 5593 5587 5581 5576 5571 5568 5565 5557 5553 5555 5557 5552 5549 5551 5551 5558 5567 5570 5571 5571 5571 5570 5571 5573 5576
5670 5666 5660 5653 5648 5642 5637 5632 5628 5623 5618 5613 5606 5600 5595 5594 5589 5583 5577 5570 5563 5558 5554 5548 5542 5539 5536 5535 5538 5537 5535 5536 5536 5532 5544 5555 5556 5557 5556 5555 5555 5557 5558
5658 5653 5647 5640 5633 5627 5622 5616 5610 5604 5598 5593 5587 5585 5583 5580 5575 5569 5560 5552 5545 5540 5535 5529 5525 5522 5520 5519 5519 5519 5519 5521 5525 5525 5529 5540 5542 5543 5540 5541 5541 5542 5544